Weather Roundup
Issued by NWS Corpus Christi, TX

Home | Current Version | Previous Version | Text Only | Print | Product List | Glossary Off
Versions: 1 2 3 4 5 6 7 8 9 10 11 12 13 14 15 16 17 18 19 20 21 22 23 24 25 26 27 28 29 30 31 32 33 34 35 36 37 38 39 40 41 42 43 44 45 46 47 48 49 50

000
ASUS44 KCRP 200910
HRRCRP

SOUTH TEXAS REGIONAL WEATHER ROUNDUP
NATIONAL WEATHER SERVICE CORPUS CHRISTI TX
400 AM CDT MON OCT 20 2014


TXZ229>244-201000-
...CORPUS CHRISTI AREA OBSERVATIONS...

CITY           SKY/WX    TMP DP  RH WIND       PRES   REMARKS
CORPUS CHRISTI MOCLDY    72  69  90 NE8       29.94F
NAS CORPUS CHR CLEAR     76  72  87 E9        29.93F
ROCKPORT       CLOUDY    73  69  87 VRB5      29.95F
KINGSVILLE NAS PTCLDY    71  70  96 NE3       29.93F
ALICE          CLEAR     69  67  93 NE6       29.94F
FALFURRIAS     MOCLDY    73  68  86 E6        29.93F
$$

...VICTORIA AREA OBSERVATIONS...

CITY           SKY/WX    TMP DP  RH WIND       PRES   REMARKS
VICTORIA       CLEAR     67  66  97 E7        29.98F FOG
BEEVILLE       FAIR      68  68 100 NE6       29.97S FOG
PLEASANTON     CLOUDY    66  64  93 NE5       30.00S
SAN ANTONIO    CLOUDY    69  65  86 E5        30.02F
$$

...LAREDO AREA OBSERVATIONS...

CITY           SKY/WX    TMP DP  RH WIND       PRES   REMARKS
LAREDO         CLEAR     68  66  93 CALM      29.98F
COTULLA        MOCLDY    70  64  81 E6        29.98S
DEL RIO        MOCLDY    69  61  75 E9        29.98S
MCALLEN        PTCLDY    72  67  84 NE3       29.92F
HEBBRONVILLE   PTCLDY    67  64  92 N3        29.97F
$$

...OTHER TEXAS OBSERVATIONS...

CITY           SKY/WX    TMP DP  RH WIND       PRES   REMARKS
BROWNSVILLE    PTCLDY    72  69  90 CALM      29.91F
HOUSTON        PTCLDY    62  59  90 E7        30.01F
COL. STATION   CLEAR     63  57  81 CALM      30.03S
AUSTIN         PTCLDY    58  57  97 CALM      30.03S
WACO           CLEAR     57  56  96 CALM      30.05S
FORT WORTH     MOCLDY    59  53  80 CALM      30.04S
WICHITA FALLS  CLEAR     59  56  89 S8        30.04S
LUBBOCK        PTCLDY    56  53  90 CALM      30.09R
EL PASO        MOCLDY    62  53  72 NW6       30.07F
$$

...MARINE OBSERVATIONS...

STATION/POSITION TIME  SKY/WX   TEMP    WIND        PRES    VSBY  WAVE   SWELL
                                AIR SEA DIR/SP/G                  HT/PER HT/PER
                 (UTC)          (F)     (DEG/KT/KT) (MB)    (MI)  (FT/S) (FT/S)
PORT ARANSAS     0900            78 79   70/ 14/ 15 1014.2F
BUOY 90 E PORT A 0900            78 81   70/ 17/ 21 1014.2F         5/ 6
BUOY 45 SE BAFFI 0900            80 80  120/ 12/ 14 1012.4F         4/ 6   2/ 6
BUOY 200 E PT IS 0900            80 82  110/ 12/ 14 1012.9F         4/ 6   2/ 6
BUOY 15 E GALVES 0900            74 80   90/ 14/ 16 1015.1F         3/ 4
$$



USA.gov is the U.S. government's official web portal to all federal, state and local government web resources and services.